Location: Bretagne
(43.8474°N, 0.4650°W)
Time: 15:04:01
(UTC+00:00)

COSMO-SKYMED 1 - Visible Passes

Search period start: 19 April 2026 00:00
Search period end: 29 April 2026 00:00
Orbit: 576 x 578 km, 97.9° (Epoch: 19 April)

Date Brightness Start Highest point End Pass type
(mag) Time Alt. Az. Time Alt. Az. Time Alt. Az.
19 Apr 5.9 04:28:20 10° E 04:30:42 15° ENE 04:33:04 10° NNE visible
19 Apr 4.3 19:16:01 10° N 19:19:49 37° WNW 19:23:34 10° SW visible
20 Apr 5.8 04:31:59 10° ESE 04:34:35 16° ENE 04:37:10 10° NNE visible
20 Apr 4.5 19:20:00 10° N 19:23:42 33° WNW 19:27:24 10° SW visible
21 Apr 5.8 04:35:41 10° ESE 04:38:27 18° ENE 04:41:14 10° NNE visible
21 Apr 4.7 19:23:58 10° N 19:27:36 31° WNW 19:31:12 10° SW visible
22 Apr 4.9 19:27:57 10° N 19:31:29 28° WNW 19:34:59 10° SW visible
23 Apr 5.1 19:31:57 10° NNW 19:35:21 26° WNW 19:38:46 10° SW visible
24 Apr 5.3 19:35:56 10° NNW 19:39:14 24° WNW 19:42:31 10° WSW visible
25 Apr 5.4 19:39:56 10° NNW 19:43:06 22° WNW 19:46:15 10° WSW visible
26 Apr 5.6 19:43:57 10° NNW 19:46:58 20° WNW 19:49:58 10° WSW visible
27 Apr 5.7 19:47:58 10° NNW 19:50:49 18° WNW 19:53:41 10° WSW visible
28 Apr 5.7 19:52:01 10° NNW 19:54:41 17° WNW 19:57:21 10° WSW visible
